NOAA 16 DEB, 41534

Orbit data source: Space-Track

NOAA 16 DEB, 41534 is space debris in SSO originally from a launch on Thu, 21 Sep 2000 UTC launched from the Air Force Western Test Range (AFWTR). Debris objects in space refer to the collection of defunct objects orbiting the Earth. Examples of debris include non-operational satellites, rocket bodies, and fragments generated from explosions, collisions, or faulty payload assembly.

Loading next visibility...
Identifier
41534, 2000-055NJ
Orbit
SSO
Country
Flag of USUS
Related business
Manufacturer
Unknown
Mission
Spacecraft
Bus & Motor
Unknown
Mass
Unknown
Launch date (UTC)
2000-09-21 (26 years ago)
Launch vehicle
Unknown
Launch site
Air Force Western Test Range (AFWTR)
Object type
Payload
Rocket body
Debris
Shape & HBR
Unknown shape, 0.1 m
Radar Cross Section
Small (<0.1 m²)

Expand to show TLE details & history
Last TLE update: 3 hours ago

TLE from 3 hours ago
0 NOAA 16 DEB
1 41534U 00055NJ  26127.21574816  .00004844  00000-0  17317-2 0  9990
2 41534  98.8080 215.1838 0015098 293.4815  66.4782 14.34478692517470
Epoch: 2026-05-07T05:10Z
TLE epoch observation values (Epoch: 2026-05-07T05:10:40.641Z)
Latitude
-0°
Longitude
-87.55062°
Altitude
775.432 km
Speed
7.469 km/s
True Right ascension
14h 20m 44s
True Declination
0° 00' 00"
Sunlit
Object was in full shadow at epoch
Visualization orbit readout
Latitude
Unknown
Longitude
Unknown
Altitude
Unknown
Speed
Unknown
Apparent Right ascension
Unknown
Apparent Declination
Unknown
Sunlit
N/A
Visualization observer readout
Local Sidereal Time
15:45:23
Azimuth
Unknown
Elevation
Unknown
Doppler factor
Unknown
Orbital elements
Apogee altitude
784.742 km
Perigee altitude
763.145 km
Semi-major axis
7,152.08 km
Eccentricity
0.00151
Inclination
98.808°
RAAN
215.1838°
Arg. of periapsis
293.4815°
True anomaly
66.63695°
Mean anomaly
66.4782°
Eccentric anomaly
66.55757°
Mean motion
3.58835 °/min
Orbital period
100.32 mins
BSTAR
0.0017317
Loading maneuver chart data...
Computing Atmospheric mass density...

Documentation

Showing up to 5 results
|